![]() |
EMODnet Physics ERDDAP
Easier access to scientific data |
log in|
Brought to you by EMODnet Physics |
| Dataset Title: | NDBC - Collection of dew point temperature (DEWT) TimeSeries - IN SITU MultiPointTimeSeriesObservation
|
| Institution: | NDBC (Dataset ID: TS_DEWT_NDBC) |
| Information: | Summary
| License
| FGDC
| ISO 19115
| Metadata
| Background
| Subset
| Data Access Form
| Make a graph
|
| Name | Last modified | Size | Description | |
|---|---|---|---|---|
| Parent Directory | - | - | ||
| 45008_TS_DEWT_042023.nc | 17-Feb-2026 13:26 | 995346 | ||
| 45008_TS_DEWT_042024.nc | 17-Feb-2026 13:36 | 994943 | ||
| 45008_TS_DEWT_052019.nc | 17-Feb-2026 12:58 | 995466 | ||
| 45008_TS_DEWT_052023.nc | 17-Feb-2026 13:27 | 995210 | ||
| 45008_TS_DEWT_052024.nc | 17-Feb-2026 13:37 | 994820 | ||
| 45008_TS_DEWT_052025.nc | 17-Feb-2026 13:46 | 1142560 | ||
| 45008_TS_DEWT_062021.nc | 17-Feb-2026 13:09 | 1142902 | ||
| 45008_TS_DEWT_062022.nc | 17-Feb-2026 13:17 | 1143818 | ||
| 45008_TS_DEWT_062023.nc | 17-Feb-2026 13:28 | 1143237 | ||
| 45008_TS_DEWT_062024.nc | 17-Feb-2026 13:38 | 1143181 | ||
| 45008_TS_DEWT_062025.nc | 17-Feb-2026 13:47 | 1143658 | ||
| 45008_TS_DEWT_072019.nc | 17-Feb-2026 13:00 | 1143848 | ||
| 45008_TS_DEWT_072020.nc | 17-Feb-2026 13:05 | 1143294 | ||
| 45008_TS_DEWT_072021.nc | 17-Feb-2026 13:11 | 995272 | ||
| 45008_TS_DEWT_072022.nc | 17-Feb-2026 13:19 | 1143510 | ||
| 45008_TS_DEWT_072023.nc | 17-Feb-2026 13:30 | 995932 | ||
| 45008_TS_DEWT_072024.nc | 17-Feb-2026 13:39 | 1143080 | ||
| 45008_TS_DEWT_072025.nc | 17-Feb-2026 13:48 | 1142711 | ||
| 45008_TS_DEWT_082019.nc | 17-Feb-2026 13:01 | 995161 | ||
| 45008_TS_DEWT_082020.nc | 17-Feb-2026 13:06 | 994737 | ||
| 45008_TS_DEWT_082021.nc | 17-Feb-2026 13:12 | 995267 | ||
| 45008_TS_DEWT_082022.nc | 17-Feb-2026 13:20 | 995447 | ||
| 45008_TS_DEWT_082023.nc | 17-Feb-2026 13:31 | 995466 | ||
| 45008_TS_DEWT_082025.nc | 17-Feb-2026 13:49 | 994325 | ||
| 45008_TS_DEWT_092019.nc | 17-Feb-2026 13:02 | 995308 | ||
| 45008_TS_DEWT_092020.nc | 17-Feb-2026 13:07 | 995330 | ||
| 45008_TS_DEWT_092021.nc | 17-Feb-2026 13:13 | 994213 | ||
| 45008_TS_DEWT_092022.nc | 17-Feb-2026 13:21 | 995460 | ||
| 45008_TS_DEWT_092023.nc | 17-Feb-2026 13:32 | 993639 | ||
| 45008_TS_DEWT_092025.nc | 17-Feb-2026 13:50 | 995349 | ||
| 45008_TS_DEWT_102019.nc | 17-Feb-2026 13:03 | 995116 | ||
| 45008_TS_DEWT_102020.nc | 17-Feb-2026 13:08 | 995926 | ||
| 45008_TS_DEWT_102021.nc | 17-Feb-2026 13:14 | 995334 | ||
| 45008_TS_DEWT_102022.nc | 17-Feb-2026 13:23 | 1142642 | ||
| 45008_TS_DEWT_102023.nc | 17-Feb-2026 13:34 | 1143896 | ||
| 45008_TS_DEWT_102025.nc | 17-Feb-2026 13:52 | 1143228 | ||
| 45008_TS_DEWT_112019.nc | 17-Feb-2026 13:04 | 1143780 | ||
| 45008_TS_DEWT_112020.nc | 17-Feb-2026 13:09 | 1143697 | ||
| 45008_TS_DEWT_112021.nc | 17-Feb-2026 13:15 | 1143318 | ||
| 45008_TS_DEWT_112022.nc | 17-Feb-2026 13:24 | 1142721 | ||
| 45008_TS_DEWT_112023.nc | 17-Feb-2026 13:35 | 1143687 | ||
| 45008_TS_DEWT_112025.nc | 17-Feb-2026 13:53 | 1143712 | ||
| 45008_TS_DEWT_122021.nc | 17-Feb-2026 13:16 | 995734 | ||
| 45008_TS_DEWT_122022.nc | 17-Feb-2026 13:25 | 605169 | ||